Hourly Weather Murnau am Staffelsee

Today, 28 September, Tuesday

Time Temperature Precipitation Wind Pressure Humidity
00:00 +14°C° 0 mm 1 mps 707 mmHg 88%
01:00 +14°C° 0 mm 1 mps 707 mmHg 88%
02:00 +13°C° 0 mm 1 mps 707 mmHg 89%
03:00 +13°C° 0 mm 1 mps 707 mmHg 90%
04:00 +13°C° 0 mm 1 mps 707 mmHg 90%
05:00 +13°C° 0 mm 1 mps 707 mmHg 92%
06:00 +12°C° 0 mm 0 mps 707 mmHg 93%
07:00 +12°C° 0 mm 0 mps 707 mmHg 94%
08:00 +13°C° 0 mm 0 mps 707 mmHg 93%
09:00 +15°C° 0 mm 1 mps 707 mmHg 93%
10:00 +15°C° 0 mm 1 mps 707 mmHg 92%
11:00 +15°C° 0 mm 1 mps 707 mmHg 90%
12:00 +16°C° 0 mm 1 mps 707 mmHg 89%
13:00 +16°C° 0 mm 1 mps 706 mmHg 88%
14:00 +16°C° 0 mm 1 mps 706 mmHg 88%
15:00 +16°C° 0 mm 1 mps 706 mmHg 88%
16:00 +16°C° 0 mm 1 mps 705 mmHg 88%
17:00 +15°C° 0 mm 1 mps 705 mmHg 91%
18:00 +15°C° 0 mm 1 mps 705 mmHg 94%
19:00 +14°C° 0 mm 1 mps 705 mmHg 96%
20:00 +14°C° 0 mm 1 mps 705 mmHg 96%
21:00 +13°C° 0 mm 0 mps 705 mmHg 96%
22:00 +13°C° 0 mm 0 mps 704 mmHg 96%
23:00 +13°C° 0.2 mm 0 mps 704 mmHg 97%

Tomorrow, 29 September, Wednesday

Time Temperature Precipitation Wind Pressure Humidity
00:00 +14°C° 0.2 mm 1 mps 704 mmHg 97%
01:00 +14°C° 0.2 mm 1 mps 704 mmHg 98%
02:00 +14°C° 1.2 mm 2 mps 704 mmHg 97%
03:00 +14°C° 1.2 mm 2 mps 705 mmHg 96%
04:00 +13°C° 1.2 mm 3 mps 705 mmHg 96%
05:00 +12°C° 1.6 mm 3 mps 705 mmHg 96%
06:00 +13°C° 1.6 mm 2 mps 705 mmHg 96%
07:00 +12°C° 1.6 mm 2 mps 706 mmHg 96%
08:00 +13°C° 0.3 mm 2 mps 706 mmHg 94%
09:00 +13°C° 0.3 mm 2 mps 706 mmHg 92%
10:00 +13°C° 0.3 mm 2 mps 707 mmHg 90%
11:00 +14°C° 0.1 mm 2 mps 707 mmHg 84%
12:00 +15°C° 0.1 mm 2 mps 707 mmHg 78%
13:00 +16°C° 0.1 mm 2 mps 707 mmHg 71%
14:00 +16°C° 0.1 mm 2 mps 707 mmHg 72%
15:00 +16°C° 0.1 mm 2 mps 707 mmHg 72%
16:00 +16°C° 0.1 mm 2 mps 707 mmHg 73%
17:00 +14°C° 0.2 mm 2 mps 707 mmHg 79%
18:00 +13°C° 0.2 mm 1 mps 707 mmHg 86%
19:00 +11°C° 0.2 mm 1 mps 708 mmHg 93%
20:00 +11°C° 0.5 mm 1 mps 708 mmHg 94%
21:00 +11°C° 0.5 mm 1 mps 708 mmHg 96%
22:00 +11°C° 0.5 mm 1 mps 709 mmHg 97%
23:00 +11°C° 0.5 mm 1 mps 709 mmHg 97%

Day after tomorrow, 30 September, Thursday

Time Temperature Precipitation Wind Pressure Humidity
00:00 +11°C° 0.5 mm 1 mps 709 mmHg 97%
01:00 +10°C° 0.5 mm 1 mps 710 mmHg 97%
02:00 +10°C° 0.1 mm 1 mps 710 mmHg 96%
03:00 +10°C° 0.1 mm 1 mps 710 mmHg 96%
04:00 +9°C° 0.1 mm 1 mps 710 mmHg 95%
05:00 +9°C° 0 mm 1 mps 711 mmHg 95%
06:00 +8°C° 0 mm 0 mps 711 mmHg 94%
07:00 +8°C° 0 mm 0 mps 711 mmHg 94%
08:00 +9°C° 0 mm 0 mps 711 mmHg 89%
09:00 +9°C° 0 mm 0 mps 711 mmHg 85%
10:00 +10°C° 0 mm 0 mps 711 mmHg 80%
11:00 +12°C° 0 mm 1 mps 711 mmHg 74%
12:00 +14°C° 0 mm 1 mps 710 mmHg 68%
13:00 +15°C° 0 mm 1 mps 710 mmHg 62%
14:00 +15°C° 0 mm 1 mps 710 mmHg 62%
15:00 +15°C° 0 mm 1 mps 709 mmHg 62%
16:00 +15°C° 0 mm 2 mps 709 mmHg 63%
17:00 +13°C° 0 mm 1 mps 709 mmHg 73%
18:00 +11°C° 0 mm 1 mps 709 mmHg 83%
19:00 +9°C° 0 mm 1 mps 709 mmHg 93%
20:00 +9°C° 0 mm 1 mps 709 mmHg 93%
21:00 +8°C° 0 mm 1 mps 709 mmHg 93%
22:00 +8°C° 0 mm 1 mps 709 mmHg 93%
23:00 +8°C° 0 mm 1 mps 709 mmHg 92%

1 October, Friday

Time Temperature Precipitation Wind Pressure Humidity
00:00 +8°C° 0 mm 1 mps 709 mmHg 92%
01:00 +8°C° 0 mm 1 mps 708 mmHg 91%
02:00 +8°C° 0 mm 1 mps 708 mmHg 91%
03:00 +8°C° 0 mm 1 mps 708 mmHg 90%
04:00 +8°C° 0 mm 1 mps 708 mmHg 90%
05:00 +8°C° 0 mm 1 mps 708 mmHg 89%
06:00 +9°C° 0 mm 1 mps 707 mmHg 87%
07:00 +9°C° 0 mm 1 mps 707 mmHg 86%
08:00 +12°C° 0 mm 1 mps 707 mmHg 76%
09:00 +15°C° 0 mm 1 mps 707 mmHg 66%
10:00 +19°C° 0 mm 1 mps 707 mmHg 56%
11:00 +20°C° 0 mm 1 mps 707 mmHg 53%
12:00 +21°C° 0 mm 1 mps 706 mmHg 50%
13:00 +22°C° 0 mm 1 mps 706 mmHg 47%
14:00 +22°C° 0 mm 1 mps 705 mmHg 52%
15:00 +21°C° 0 mm 1 mps 705 mmHg 57%
16:00 +21°C° 0 mm 1 mps 704 mmHg 63%
17:00 +18°C° 0 mm 1 mps 704 mmHg 72%
18:00 +15°C° 0 mm 1 mps 704 mmHg 82%
19:00 +13°C° 0 mm 1 mps 704 mmHg 91%
20:00 +12°C° 0 mm 1 mps 704 mmHg 90%
21:00 +12°C° 0 mm 1 mps 704 mmHg 90%
22:00 +12°C° 0 mm 1 mps 703 mmHg 89%
23:00 +10°C° 0 mm 2 mps 703 mmHg 88%

2 October, Saturday

Time Temperature Precipitation Wind Pressure Humidity
00:00 +10°C° 0 mm 2 mps 703 mmHg 86%
01:00 +10°C° 0 mm 2 mps 703 mmHg 85%
02:00 +10°C° 0 mm 2 mps 703 mmHg 84%
03:00 +10°C° 0 mm 2 mps 702 mmHg 82%
04:00 +10°C° 0 mm 2 mps 702 mmHg 81%
05:00 +10°C° 0 mm 2 mps 702 mmHg 79%
06:00 +12°C° 0 mm 2 mps 702 mmHg 78%
07:00 +12°C° 0 mm 1 mps 702 mmHg 76%
08:00 +13°C° 0 mm 1 mps 702 mmHg 73%
09:00 +15°C° 0 mm 1 mps 702 mmHg 70%
10:00 +15°C° 0 mm 0 mps 702 mmHg 66%
11:00 +18°C° 0.1 mm 1 mps 702 mmHg 66%
12:00 +18°C° 0.1 mm 1 mps 702 mmHg 66%
13:00 +19°C° 0.1 mm 1 mps 702 mmHg 66%
14:00 +17°C° 0.4 mm 2 mps 702 mmHg 73%
15:00 +16°C° 0.4 mm 2 mps 701 mmHg 80%
16:00 +15°C° 0.4 mm 2 mps 701 mmHg 88%
17:00 +14°C° 0.3 mm 1 mps 701 mmHg 90%
18:00 +14°C° 0.3 mm 1 mps 702 mmHg 93%
19:00 +13°C° 0.3 mm 1 mps 702 mmHg 96%
20:00 +13°C° 0.1 mm 1 mps 701 mmHg 96%
21:00 +12°C° 0.1 mm 1 mps 701 mmHg 96%
22:00 +12°C° 0.1 mm 1 mps 701 mmHg 97%
23:00 +11°C° 0.1 mm 0 mps 701 mmHg 96%

3 October, Sunday

Time Temperature Precipitation Wind Pressure Humidity
00:00 +11°C° 0.1 mm 0 mps 700 mmHg 96%
01:00 +11°C° 0.1 mm 0 mps 700 mmHg 96%
02:00 +11°C° 0 mm 0 mps 699 mmHg 96%
03:00 +12°C° 0 mm 1 mps 699 mmHg 96%
04:00 +11°C° 0 mm 1 mps 698 mmHg 96%
05:00 +11°C° 0 mm 1 mps 697 mmHg 96%
06:00 +10°C° 0 mm 2 mps 696 mmHg 96%
07:00 +9°C° 0 mm 2 mps 695 mmHg 96%
08:00 +12°C° 0 mm 2 mps 695 mmHg 90%
09:00 +13°C° 0 mm 2 mps 694 mmHg 85%
10:00 +15°C° 0 mm 2 mps 693 mmHg 80%
11:00 +16°C° 0 mm 2 mps 693 mmHg 73%
12:00 +17°C° 0 mm 2 mps 692 mmHg 65%
13:00 +18°C° 0 mm 2 mps 691 mmHg 58%
14:00 +18°C° 0 mm 2 mps 691 mmHg 62%
15:00 +17°C° 0 mm 2 mps 690 mmHg 66%
16:00 +17°C° 0 mm 2 mps 689 mmHg 70%
17:00 +16°C° 0 mm 2 mps 690 mmHg 75%
18:00 +13°C° 0 mm 3 mps 691 mmHg 80%
19:00 +12°C° 0 mm 3 mps 691 mmHg 84%
20:00 +12°C° 0.9 mm 3 mps 692 mmHg 88%
21:00 +11°C° 0.9 mm 3 mps 692 mmHg 92%
22:00 +11°C° 0.9 mm 3 mps 692 mmHg 96%
23:00 +9°C° 2.1 mm 2 mps 693 mmHg 96%
Show more

We Need Your Consent

Meteoprog and our Service Providers may store and access personal data such as cookies, device identifiers or other similar technologies on your device and process such data to personalise content and ads, as well as provide social media features and to analyse the traffic.

  • Store and/or access information on your device

    Cookies, device identifiers or other information can be stored or accessed on your device for the purposes indicated above.

  • Personalised ads and content, ad and content measurement, audience insights, and products development

    Ads and content can be personalised based on a profile. More data can be added to better personalise ads and content. Ad and content performance can be measured. Insights about the audience who saw the ads and content can be derived. Such data can be used to develop or improve user’s experience, systems and software.

By clicking ‘I Agree’ you will allow the use of indicated cookies, device identifiers, web beacons or other similar technologies. Your settings can be changed in the browser on your device.

For certain purposes, legitimate interests may be relied on, rather than consent. You can read more about this in our Privacy and Cookie Policy.